Weather History for Kendall, FL

Change the Weather History Date:

Sunday, November 10, 2013

  Actual Average Record
Temperature  
Mean Temperature 78 °F -  
Max Temperature 84 °F 80 °F 88 °F (2000)
Min Temperature 72 °F 63 °F 49 °F (1991)
Cooling Degree Days 14    
Growing Degree Days 28 (Base 50)    
Moisture  
Dew Point 73 °F    
Average Humidity 86    
Maximum Humidity 100    
Minimum Humidity 58    
Precipitation  
Precipitation 0.51 in - - ()
Sea Level Pressure  
Sea Level Pressure 30.07 in    
Wind  
Wind Speed 10 mph (ENE)    
Max Wind Speed 17 mph    
Max Gust Speed 23 mph    
Visibility 9 miles    
Events Rain    
Averages and records for this station are not official NWS values.
T = Trace of Precipitation, MM = Missing Value Source: NWS Daily Summary

Daily Weather History Graph

Daily Weather History Graph

Search for Another Location

Airport:

Trip Planner

Search our weather history database for the weather conditions in past years. The results will help you decide how hot, cold, wet, or windy it might be!

Date:

Astronomy

Nov. 10, 2013 Rise Set
Actual Time 6:36 AM EST 5:35 PM EST
Civil Twilight 6:11 AM EST 5:59 PM EST
Nautical Twilight 5:44 AM EST 6:26 PM EST
Astronomical Twilight 5:17 AM EST 6:53 PM EST
Moon 1:01 PM EST (11/10) No Moon Set
Length of Visible Light 11h 47m
Length of Day
10h 59m
First Quarter, 55% of the Moon is Illuminated
Nov 10
First Quarter
Nov 17
Full
Nov 25
Last Quarter
Dec 2
New
Dec 9
First Quarter

Hourly Weather History & Observations

Time (EST) Temp. Heat Index Dew Point Humidity Pressure Visibility Wind Dir Wind Speed Gust Speed Precip Events Conditions
12:05 AM 75.2 °F - 75.2 °F 100% 30.07 in 10.0 mi NE 9.2 mph - 0.00 in   Overcast
12:33 AM 75.2 °F - 75.2 °F 100% 30.07 in 9.0 mi NE 10.4 mph - 0.00 in Rain Light Rain
12:53 AM 75.0 °F - 75.0 °F 100% 30.06 in 10.0 mi NE 9.2 mph - 0.00 in   Overcast
1:53 AM 75.9 °F - 75.0 °F 97% 30.05 in 10.0 mi ENE 10.4 mph - N/A   Overcast
2:29 AM 75.2 °F - 75.2 °F 100% 30.05 in 10.0 mi East 10.4 mph - 0.02 in   Mostly Cloudy
2:37 AM 75.2 °F - 75.2 °F 100% 30.05 in 10.0 mi East 9.2 mph - 0.02 in   Overcast
2:53 AM 75.9 °F - 75.9 °F 100% 30.05 in 10.0 mi East 10.4 mph - 0.02 in   Overcast
3:18 AM 75.2 °F - 75.2 °F 100% 30.05 in 7.0 mi East 10.4 mph - 0.01 in Rain Light Rain
3:25 AM 75.2 °F - 75.2 °F 100% 30.05 in 3.0 mi East 15.0 mph 19.6 mph 0.06 in Rain Rain
3:41 AM 75.2 °F - 75.2 °F 100% 30.05 in 8.0 mi East 10.4 mph - 0.08 in Rain Light Rain
3:53 AM 75.9 °F - 75.9 °F 100% 30.05 in 10.0 mi ENE 8.1 mph - 0.08 in   Overcast
4:53 AM 75.9 °F - 73.9 °F 94% 30.06 in 10.0 mi ENE 11.5 mph - N/A   Overcast
5:12 AM 75.2 °F - 73.4 °F 94% 30.06 in 3.0 mi East 11.5 mph - 0.10 in Rain Heavy Rain
5:19 AM 75.2 °F - 73.4 °F 94% 30.07 in 2.5 mi East 12.7 mph - 0.15 in Rain Rain
5:31 AM 73.4 °F - 73.4 °F 100% 30.07 in 3.0 mi East 11.5 mph - 0.26 in Rain Heavy Rain
5:53 AM 73.9 °F - 73.9 °F 100% 30.07 in 4.0 mi East 12.7 mph - 0.30 in Rain Rain
6:53 AM 75.9 °F - 75.9 °F 100% 30.09 in 10.0 mi ENE 5.8 mph - 0.08 in   Overcast
7:13 AM 75.2 °F - 75.2 °F 100% 30.09 in 3.0 mi ENE 6.9 mph - 0.02 in Rain Rain
7:53 AM 75.9 °F - 75.9 °F 100% 30.10 in 10.0 mi ENE 5.8 mph - 0.03 in   Overcast
8:53 AM 79.0 °F - 75.9 °F 90% 30.10 in 10.0 mi ENE 11.5 mph - N/A   Overcast
9:53 AM 82.0 °F 87.4 °F 73.0 °F 74% 30.11 in 10.0 mi ENE 13.8 mph - N/A   Mostly Cloudy
10:53 AM 82.9 °F 88.0 °F 72.0 °F 69% 30.10 in 10.0 mi East 16.1 mph - N/A   Overcast
11:00 AM 82.4 °F 87.2 °F 71.6 °F 70% 30.10 in 10.0 mi East 13.8 mph 21.9 mph N/A   Mostly Cloudy
11:53 AM 82.9 °F 88.0 °F 72.0 °F 69% 30.09 in 10.0 mi East 13.8 mph 23.0 mph N/A   Mostly Cloudy
12:32 PM 84.2 °F 89.6 °F 71.6 °F 66% 30.07 in 10.0 mi ENE 17.3 mph 23.0 mph N/A   Mostly Cloudy
12:53 PM 84.9 °F 90.7 °F 72.0 °F 65% 30.06 in 10.0 mi East 15.0 mph - N/A   Mostly Cloudy
1:53 PM 84.0 °F 89.6 °F 72.0 °F 67% 30.05 in 10.0 mi East 12.7 mph - N/A   Overcast
2:20 PM 82.4 °F 87.2 °F 71.6 °F 70% 30.04 in 10.0 mi East 15.0 mph - N/A   Mostly Cloudy
2:53 PM 82.9 °F 87.0 °F 70.0 °F 65% 30.03 in 10.0 mi ENE 13.8 mph - N/A   Mostly Cloudy
3:05 PM 84.2 °F 89.6 °F 71.6 °F 66% 30.03 in 10.0 mi ENE 10.4 mph 20.7 mph N/A   Scattered Clouds
3:53 PM 84.0 °F 87.0 °F 68.0 °F 58% 30.05 in 10.0 mi ENE 16.1 mph - N/A   Partly Cloudy
4:53 PM 81.0 °F 84.4 °F 70.0 °F 69% 30.05 in 10.0 mi ENE 13.8 mph - N/A   Partly Cloudy
5:53 PM 79.0 °F - 70.0 °F 74% 30.05 in 10.0 mi NE 13.8 mph - N/A   Clear
6:53 PM 78.1 °F - 69.1 °F 74% 30.06 in 10.0 mi NE 6.9 mph - N/A   Clear
7:53 PM 77.0 °F - 69.1 °F 76% 30.08 in 10.0 mi NE 6.9 mph - N/A   Clear
8:53 PM 75.0 °F - 69.1 °F 82% 30.08 in 10.0 mi NE 5.8 mph - N/A   Clear
9:53 PM 75.0 °F - 70.0 °F 84% 30.08 in 10.0 mi NNE 5.8 mph - N/A   Clear
10:53 PM 75.0 °F - 69.1 °F 82% 30.09 in 10.0 mi NNE 3.5 mph - N/A   Partly Cloudy
11:53 PM 72.0 °F - 69.1 °F 91% 30.09 in 10.0 mi Calm Calm - N/A   Clear